Time,TemperatureF,DewpointF,PressureIn,WindDirection,WindDirectionDegrees,WindSpeedMPH,WindSpeedGustMPH,Humidity,HourlyPrecipIn,Conditions,Clouds,dailyrainin,SoftwareType,DateUTC
2013-06-09 00:00:00,42.0,-99.9,-100.00,North,-999,-999.0,-999.0,-999,-99.99,,,0.00,,2013-06-09 07:00:00,
2013-06-09 00:53:00,42.0,-99.9,-100.00,North,-999,-999.0,-999.0,-999,-99.99,,,0.00,,2013-06-09 07:53:00,
2013-06-09 01:00:00,42.0,-99.9,-100.00,SW,230,1.0,3.0,-999,-99.99,,,0.00,,2013-06-09 08:00:00,
2013-06-09 01:53:00,42.0,-99.9,-100.00,SW,230,1.0,3.0,-999,-99.99,,,0.00,,2013-06-09 08:53:00,
2013-06-09 02:00:00,42.0,-99.9,-100.00,WSW,252,0.0,2.0,-999,-99.99,,,0.00,,2013-06-09 09:00:00,
2013-06-09 02:53:00,42.0,-99.9,-100.00,WSW,252,0.0,2.0,-999,-99.99,,,0.00,,2013-06-09 09:53:00,
2013-06-09 03:00:00,42.0,-99.9,-100.00,South,188,0.0,2.0,-999,-99.99,,,-99.99,,2013-06-09 10:00:00,
2013-06-09 03:52:00,42.0,-99.9,-100.00,South,188,0.0,2.0,-999,-99.99,,,-99.99,,2013-06-09 10:52:00,
2013-06-09 04:00:00,41.0,-99.9,-100.00,ESE,107,0.0,3.0,-999,-99.99,,,0.00,,2013-06-09 11:00:00,
2013-06-09 04:53:00,41.0,-99.9,-100.00,ESE,107,0.0,3.0,-999,-99.99,,,0.00,,2013-06-09 11:53:00,
2013-06-09 05:00:00,41.0,-99.9,-100.00,NE,48,0.0,1.0,-999,-99.99,,,0.00,,2013-06-09 12:00:00,
2013-06-09 05:53:00,41.0,-99.9,-100.00,NE,48,0.0,1.0,-999,-99.99,,,0.00,,2013-06-09 12:53:00,
2013-06-09 06:00:00,40.0,-99.9,-100.00,SSE,163,0.0,2.0,-999,-99.99,,,0.00,,2013-06-09 13:00:00,
2013-06-09 06:52:00,40.0,-99.9,-100.00,SSE,163,0.0,2.0,-999,-99.99,,,0.00,,2013-06-09 13:52:00,
2013-06-09 07:00:00,40.0,-99.9,-100.00,North,355,0.0,1.0,-999,-99.99,,,0.00,,2013-06-09 14:00:00,
2013-06-09 07:52:00,40.0,-99.9,-100.00,North,355,0.0,1.0,-999,-99.99,,,0.00,,2013-06-09 14:52:00,
2013-06-09 08:00:00,40.0,-99.9,-100.00,East,87,0.0,2.0,-999,-99.99,,,0.00,,2013-06-09 15:00:00,
2013-06-09 08:53:00,40.0,-99.9,-100.00,East,87,0.0,2.0,-999,-99.99,,,0.00,,2013-06-09 15:53:00,
2013-06-09 09:00:00,41.0,-99.9,-100.00,East,101,0.0,1.0,-999,-99.99,,,-99.99,,2013-06-09 16:00:00,
2013-06-09 09:53:00,41.0,-99.9,-100.00,East,101,0.0,1.0,-999,-99.99,,,-99.99,,2013-06-09 16:53:00,
2013-06-09 10:00:00,43.0,-99.9,-100.00,ESE,122,1.0,2.0,-999,-99.99,,,0.00,,2013-06-09 17:00:00,
2013-06-09 10:52:00,43.0,-99.9,-100.00,ESE,122,1.0,2.0,-999,-99.99,,,0.00,,2013-06-09 17:52:00,
2013-06-09 11:00:00,47.0,-99.9,-100.00,East,87,1.0,2.0,-999,-99.99,,,-99.99,,2013-06-09 18:00:00,
2013-06-09 11:52:00,47.0,-99.9,-100.00,East,87,1.0,2.0,-999,-99.99,,,-99.99,,2013-06-09 18:52:00,
2013-06-09 12:00:00,47.0,-99.9,-100.00,SE,138,1.0,3.0,-999,-99.99,,,-99.99,,2013-06-09 19:00:00,
2013-06-09 12:52:00,47.0,-99.9,-100.00,SE,138,1.0,3.0,-999,-99.99,,,-99.99,,2013-06-09 19:52:00,
2013-06-09 13:00:00,50.0,-99.9,-100.00,ENE,60,1.0,3.0,-999,-99.99,,,-99.99,,2013-06-09 20:00:00,
2013-06-09 13:53:00,50.0,-99.9,-100.00,ENE,60,1.0,3.0,-999,-99.99,,,-99.99,,2013-06-09 20:53:00,
2013-06-09 14:00:00,51.0,-99.9,-100.00,South,184,1.0,3.0,-999,-99.99,,,0.00,,2013-06-09 21:00:00,
2013-06-09 14:53:00,51.0,-99.9,-100.00,South,184,1.0,3.0,-999,-99.99,,,0.00,,2013-06-09 21:53:00,
2013-06-09 15:00:00,51.0,-99.9,-100.00,South,184,1.0,3.0,-999,-99.99,,,0.00,,2013-06-09 22:00:00,
2013-06-09 15:52:00,51.0,-99.9,-100.00,South,184,1.0,3.0,-999,-99.99,,,0.00,,2013-06-09 22:52:00,
2013-06-09 16:00:00,51.0,-99.9,-100.00,WSW,251,1.0,3.0,-999,-99.99,,,-99.99,,2013-06-09 23:00:00,
2013-06-09 16:52:00,51.0,-99.9,-100.00,WSW,251,1.0,3.0,-999,-99.99,,,-99.99,,2013-06-09 23:52:00,
2013-06-09 17:00:00,48.0,-99.9,-100.00,NW,308,1.0,4.0,-999,-99.99,,,-99.99,,2013-06-10 00:00:00,
2013-06-09 17:52:00,48.0,-99.9,-100.00,NW,308,1.0,4.0,-999,-99.99,,,-99.99,,2013-06-10 00:52:00,
2013-06-09 18:00:00,49.0,-99.9,-100.00,WSW,255,1.0,2.0,-999,-99.99,,,-99.99,,2013-06-10 01:00:00,
2013-06-09 18:52:00,49.0,-99.9,-100.00,WSW,255,1.0,2.0,-999,-99.99,,,-99.99,,2013-06-10 01:52:00,
2013-06-09 19:00:00,45.0,-99.9,-100.00,WSW,239,1.0,2.0,-999,-99.99,,,0.00,,2013-06-10 02:00:00,
2013-06-09 19:52:00,45.0,-99.9,-100.00,WSW,239,1.0,2.0,-999,-99.99,,,0.00,,2013-06-10 02:52:00,
2013-06-09 20:00:00,43.0,-99.9,-100.00,WNW,282,1.0,3.0,-999,-99.99,,,-99.99,,2013-06-10 03:00:00,
2013-06-09 20:53:00,43.0,-99.9,-100.00,WNW,282,1.0,3.0,-999,-99.99,,,-99.99,,2013-06-10 03:53:00,
2013-06-09 21:00:00,40.0,-99.9,-100.00,West,262,3.0,4.0,-999,-99.99,,,0.00,,2013-06-10 04:00:00,
2013-06-09 21:53:00,40.0,-99.9,-100.00,West,262,3.0,4.0,-999,-99.99,,,0.00,,2013-06-10 04:53:00,
2013-06-09 22:00:00,40.0,-99.9,-100.00,West,263,2.0,4.0,-999,-99.99,,,0.00,,2013-06-10 05:00:00,
2013-06-09 22:52:00,40.0,-99.9,-100.00,West,263,2.0,4.0,-999,-99.99,,,0.00,,2013-06-10 05:52:00,
2013-06-09 23:00:00,39.0,-99.9,-100.00,West,274,4.0,8.0,-999,-99.99,,,0.00,,2013-06-10 06:00:00,
2013-06-09 23:53:00,39.0,-99.9,-100.00,West,274,4.0,8.0,-999,-99.99,,,0.00,,2013-06-10 06:53:00,